Regional Weather Roundup
Issued by NWS

Home | Current Version | Previous Version | Text Only | Print | Product List | Glossary On
Versions: 1 2 3 4 5 6 7 8 9 10 11 12 13 14 15 16 17 18 19 20 21 22 23 24 25 26 27 28 29 30 31 32 33 34 35 36 37 38 39 40 41 42 43 44 45 46 47 48 49 50
000
ASUS46 KPQR 210110
RWROR

OREGON REGIONAL WEATHER ROUNDUP
NATIONAL WEATHER SERVICE PORTLAND OR
600 PM PDT FRI OCT 20 2017

NOTE: "FAIR" INDICATES FEW OR NO CLOUDS BELOW 12,000 FEET WITH
NO SIGNIFICANT WEATHER AND/OR OBSTRUCTIONS TO VISIBILITY.

ORZ001>013-210200-
NORTHWEST OREGON


CITY           SKY/WX    TMP DP  RH WIND       PRES   REMARKS
ASTORIA        MOCLDY    50  46  86 S5        29.92R
NEWPORT        PTCLDY    48  46  93 S8        30.02S FOG
PORTLAND       MOCLDY    51  46  83 SE6       29.97R
VANCOUVER WA   CLOUDY    51  48  89 CALM      29.96R
SCAPPOOSE      PTCLDY    50  43  77 SE3       29.95R
HILLSBORO      MOCLDY    52  44  74 SW7       29.96R
AURORA         PTCLDY    51  46  83 S8        29.99R
MCMINNVILLE    MOCLDY    51  44  77 SW6       29.99R
SALEM          LGT RAIN  48  43  82 SW9       30.00R
CORVALLIS      CLOUDY    53  42  66 SW12      30.02R
EUGENE         LGT RAIN  49  42  77 W18G24    30.05R
$$

ORZ021-028-210200-
SOUTHWEST OREGON


CITY           SKY/WX    TMP DP  RH WIND       PRES   REMARKS
NORTH BEND     LGT RAIN  51  48  89 SE6       30.06F
BROOKINGS      MOCLDY    52  49  89 VRB6      30.12S
ROSEBURG       MOCLDY    49  44  83 E5        30.07F
SEXTON SUMMIT  FOG       36  35  96 S12       30.04R VSB<1/4 WCI  28
GRANTS PASS    FAIR      50  41  71 S5        30.12S
MEDFORD        CLOUDY    51  37  58 SW3       30.08R
$$

ORZ014>016-041-210200-
COLUMBIA GORGE


CITY           SKY/WX    TMP DP  RH WIND       PRES   REMARKS
TROUTDALE      MOCLDY    51  45  79 CALM      29.98R
HOOD RIVER     RAIN      43  41  93 SW5       29.95S
THE DALLES     MOCLDY    48  41  76 W21G31    29.95R
$$

ORZ029>031-041-044-049-050-061>064-502-503-505>511-210200-
EASTERN OREGON


CITY           SKY/WX    TMP DP  RH WIND       PRES   REMARKS
MADRAS         PTCLDY    43  43 100 SW14      29.99R
REDMOND        PTCLDY    44  24  45 NW14      29.96R
BEND           PTCLDY    41  27  56 SW12      29.97R
PRINEVILLE     PTCLDY    41  27  56 W7        29.97R
KLAMATH FALLS  PTCLDY    39  30  70 W12       30.03S WCI  32
LAKEVIEW       MOCLDY    36  32  85 S5        30.02R WCI  32
HERMISTON      PTCLDY    53  37  54 W16G26    29.85R
PENDLETON      MOCLDY    49  37  63 W12       29.85R
JOHN DAY       MOCLDY    43  31  62 SW9       29.91R
MEACHAM        CLOUDY    42  31  64 CALM      29.85R
LA GRANDE      CLOUDY    42  37  82 N6        29.87R
BAKER CITY     LGT RAIN  43  33  68 SW5       29.87R
BURNS          MOCLDY    42  28  57 W12       29.93R
ROME             N/A     42  35  76 SW10      29.95R
ONTARIO        CLOUDY    53  31  42 SW12      29.89R
$$



USA.gov is the U.S. government's official web portal to all federal, state and local government web resources and services.